Location: Vancouver
(49.2500°N, 123.1330°W)
Time: 22:57:06
(UTC-07:00)

AO-27 - Visible Passes

Search period start: 29 September 2014 00:00
Search period end: 09 October 2014 00:00
Orbit: 787 x 798 km, 98.7° (Epoch: 29 September)

Date Brightness Start Highest point End Pass type
(mag) Time Alt. Az. Time Alt. Az. Time Alt. Az.
29 Sep 9.7 02:45:05 10° NE 02:47:44 23° ENE 02:47:44 23° ENE visible
29 Sep 8.3 04:24:18 10° N 04:28:30 43° NW 04:28:30 43° NW visible
30 Sep 10.3 02:17:09 10° NE 02:18:28 14° ENE 02:18:28 14° ENE visible
30 Sep 8.3 03:55:21 10° NNE 03:59:14 51° N 03:59:14 51° N visible
30 Sep 9.4 05:36:26 10° NNW 05:39:19 15° NW 05:40:00 15° WNW visible
01 Oct 8.9 03:26:34 10° NNE 03:29:58 39° NE 03:29:58 39° NE visible
01 Oct 8.9 05:06:49 10° N 05:10:44 24° NW 05:10:44 24° NW visible
02 Oct 9.6 02:58:00 10° NNE 03:00:42 26° NE 03:00:42 26° NE visible
02 Oct 8.5 04:37:34 10° N 04:41:28 35° NW 04:41:28 35° NW visible
03 Oct 10.2 02:29:47 10° NE 02:31:26 16° ENE 02:31:26 16° ENE visible
03 Oct 8.4 04:08:31 10° N 04:12:12 44° NNW 04:12:12 44° NNW visible
03 Oct 9.6 05:50:13 10° NNW 05:52:14 12° NW 05:52:58 12° WNW visible
04 Oct 8.8 03:39:39 10° NNE 03:42:56 39° NNE 03:42:56 39° NNE visible
04 Oct 9.2 05:20:14 10° NNW 05:23:42 19° NW 05:23:42 19° NW visible
05 Oct 9.5 03:10:59 10° NNE 03:13:40 28° NE 03:13:40 28° NE visible
05 Oct 8.8 04:50:51 10° N 04:54:26 29° NW 04:54:26 29° NW visible
06 Oct 10.1 02:42:35 10° NE 02:44:24 18° NE 02:44:24 18° NE visible
06 Oct 8.6 04:21:43 10° N 04:25:10 37° NNW 04:25:10 37° NNW visible
07 Oct 10.5 02:14:43 10° NE 02:15:07 11° NE 02:15:07 11° NE visible
07 Oct 8.9 03:52:47 10° NNE 03:55:53 37° N 03:55:53 37° N visible
07 Oct 9.4 05:33:45 10° NNW 05:36:39 16° NW 05:36:39 16° NW visible
08 Oct 9.4 03:24:01 10° NNE 03:26:37 29° NNE 03:26:37 29° NNE visible
08 Oct 9.1 05:04:11 10° N 05:07:23 23° NW 05:07:23 23° NW visible
